Regional Weather Roundup
Issued by NWS

Home | Current Version | Previous Version | Text Only | Print | Product List | Glossary Off
Versions: 1 2 3 4 5 6 7 8 9 10 11 12 13 14 15 16 17 18 19 20 21 22 23 24 25 26 27 28 29 30 31 32 33 34 35 36 37 38 39 40 41 42 43 44 45 46 47 48 49 50

271
ASUS45 KBOI 190710
RWRID

IDAHO REGIONAL WEATHER ROUNDUP
NATIONAL WEATHER SERVICE BOISE ID
1200 AM MST SUN FEB 19 2017

NOTE: "FAIR" INDICATES FEW OR NO CLOUDS BELOW 12000 FEET
WITH NO SIGNIFICANT WEATHER AND/OR OBSTRUCTIONS TO VISIBILITY

IDZ012-014-190800-
SOUTHWEST IDAHO


CITY           SKY/WX    TMP DP  RH WIND       PRES   REMARKS
BOISE          CLOUDY    42  40  92 E6        29.51R
CALDWELL       CLOUDY    40  39  97 NE6       29.51R
MOUNTAIN HOME  CLOUDY    40  40 100 E5        29.51R
$$

IDZ016-017-190800-
SOUTHCENTRAL IDAHO


CITY           SKY/WX    TMP DP  RH WIND       PRES   REMARKS
BURLEY         RAIN      42  38  85 W7        29.53R FOG
JEROME         CLOUDY    38  37  97 E8        29.53S WCI  32
TWIN FALLS     LGT RAIN  41  37  86 S13       29.53S
$$

IDZ019>023-190800-
SOUTHEAST IDAHO


CITY           SKY/WX    TMP DP  RH WIND       PRES   REMARKS
IDAHO FALLS    LGT RAIN  37  36  96 SW7       29.55F WCI  32
POCATELLO      CLOUDY    46  36  68 S25G33    29.52F
REXBURG        LGT RAIN  40  37  89 S9        29.54F WCI  34
$$

IDZ006-010-011-018-031-032-190800-
CENTRAL IDAHO MOUNTAINS


CITY           SKY/WX    TMP DP  RH WIND       PRES   REMARKS
MCCALL         CLOUDY    32  31  96 S6        29.45R WCI  26
HAILEY         LGT SNOW  32  32 100 SE6       29.55S WCI  26
STANLEY          N/A     35  31  85 S6        29.47R WCI  30
SALMON         CLOUDY    39  34  81 SW14      29.44S WCI  31
CHALLIS        CLOUDY    36  34  92 S3        29.45F
$$

IDZ002-004-006-007-026-190800-
NORTHERN IDAHO


CITY           SKY/WX    TMP DP  RH WIND       PRES   REMARKS
LEWISTON       CLOUDY    40  38  93 E3        29.48S
LOWELL           N/A     35  34  96 CALM      29.53R
COEUR D`ALENE  MIX PCPN  32  31  96 CALM      29.46R FOG
MULLAN PASS    SNOW      28  28 100 VRB6      29.37R VSB 1/2 WCI  22
$$




USA.gov is the U.S. government's official web portal to all federal, state and local government web resources and services.